Year,Month,Day,Hour,Minute,Value (Times are PST for temperature in C)
2013,05,03,00,00,11.40
2013,05,03,00,01,11.40
2013,05,03,00,02,11.30
2013,05,03,00,03,11.20
2013,05,03,00,04,11.20
2013,05,03,00,05,11.10
2013,05,03,00,06,11.10
2013,05,03,00,07,11.00
2013,05,03,00,08,11.10
2013,05,03,00,09,11.10
2013,05,03,00,10,11.10
2013,05,03,00,11,11.10
2013,05,03,00,12,11.10
2013,05,03,00,13,11.10
2013,05,03,00,14,11.10
2013,05,03,00,15,11.00
2013,05,03,00,16,11.00
2013,05,03,00,17,11.00
2013,05,03,00,18,11.00
2013,05,03,00,19,10.90
2013,05,03,00,20,10.90
2013,05,03,00,21,10.90
2013,05,03,00,22,11.00
2013,05,03,00,23,11.00
2013,05,03,00,24,11.00
2013,05,03,00,25,10.90
2013,05,03,00,26,10.80
2013,05,03,00,27,10.70
2013,05,03,00,28,10.70
2013,05,03,00,29,10.70
2013,05,03,00,30,10.80
2013,05,03,00,31,10.80
2013,05,03,00,32,10.70
2013,05,03,00,33,10.60
2013,05,03,00,34,10.60
2013,05,03,00,35,10.50
2013,05,03,00,36,10.40
2013,05,03,00,37,10.40
2013,05,03,00,38,10.40
2013,05,03,00,39,10.40
2013,05,03,00,40,10.40
2013,05,03,00,41,10.40
2013,05,03,00,42,10.30
2013,05,03,00,43,10.30
2013,05,03,00,44,10.30
2013,05,03,00,45,10.20
2013,05,03,00,46,10.20
2013,05,03,00,47,10.20
2013,05,03,00,48,10.20
2013,05,03,00,49,10.30
2013,05,03,00,50,10.30
2013,05,03,00,51,10.40
2013,05,03,00,52,10.40
2013,05,03,00,53,10.40
2013,05,03,00,54,10.50
2013,05,03,00,55,10.50
2013,05,03,00,56,10.50
2013,05,03,00,57,10.50
2013,05,03,00,58,10.50
2013,05,03,00,59,10.40
2013,05,03,01,00,10.40
2013,05,03,01,01,10.40
2013,05,03,01,02,10.40
2013,05,03,01,03,10.50
2013,05,03,01,04,10.60
2013,05,03,01,05,10.60
2013,05,03,01,06,10.60
2013,05,03,01,07,10.50
2013,05,03,01,08,10.60
2013,05,03,01,09,10.60
2013,05,03,01,10,10.80
2013,05,03,01,11,11.00
2013,05,03,01,12,11.20
2013,05,03,01,13,11.20
2013,05,03,01,14,11.30
2013,05,03,01,15,11.20
2013,05,03,01,16,11.10
2013,05,03,01,17,11.00
2013,05,03,01,18,11.00
2013,05,03,01,19,11.10
2013,05,03,01,20,11.10
2013,05,03,01,21,11.00
2013,05,03,01,22,10.90
2013,05,03,01,23,10.90
2013,05,03,01,24,10.90
2013,05,03,01,25,10.80
2013,05,03,01,26,10.80
2013,05,03,01,27,10.80
2013,05,03,01,28,10.80
2013,05,03,01,29,10.80
2013,05,03,01,30,10.80
2013,05,03,01,31,10.80
2013,05,03,01,32,10.90
2013,05,03,01,33,10.90
2013,05,03,01,34,10.90
2013,05,03,01,35,10.90
2013,05,03,01,36,10.80
2013,05,03,01,37,10.80
2013,05,03,01,38,10.80
2013,05,03,01,39,10.70
2013,05,03,01,40,10.60
2013,05,03,01,41,10.50
2013,05,03,01,42,10.50
2013,05,03,01,43,10.50
2013,05,03,01,44,10.40
2013,05,03,01,45,10.40
2013,05,03,01,46,10.40
2013,05,03,01,47,10.40
2013,05,03,01,48,10.40
2013,05,03,01,49,10.40
2013,05,03,01,50,10.30
2013,05,03,01,51,10.20
2013,05,03,01,52,10.10
2013,05,03,01,53,10.00
2013,05,03,01,54,9.90
2013,05,03,01,55,9.90
2013,05,03,01,56,9.80
2013,05,03,01,57,9.80
2013,05,03,01,58,9.70
2013,05,03,01,59,9.60
2013,05,03,02,00,9.60
2013,05,03,02,01,9.60
2013,05,03,02,02,9.50
2013,05,03,02,03,9.50
2013,05,03,02,04,9.50
2013,05,03,02,05,9.40
2013,05,03,02,06,9.40
2013,05,03,02,07,9.40
2013,05,03,02,08,9.40
2013,05,03,02,09,9.40
2013,05,03,02,10,9.40
2013,05,03,02,11,9.30
2013,05,03,02,12,9.30
2013,05,03,02,13,9.30
2013,05,03,02,14,9.30
2013,05,03,02,15,9.30
2013,05,03,02,16,9.30
2013,05,03,02,17,9.30
2013,05,03,02,18,9.30
2013,05,03,02,19,9.30
2013,05,03,02,20,9.40
2013,05,03,02,21,9.40
2013,05,03,02,22,9.40
2013,05,03,02,23,9.40
2013,05,03,02,24,9.30
2013,05,03,02,25,9.30
2013,05,03,02,26,9.20
2013,05,03,02,27,9.20
2013,05,03,02,28,9.20
2013,05,03,02,29,9.20
2013,05,03,02,30,9.10
2013,05,03,02,31,9.10
2013,05,03,02,32,9.10
2013,05,03,02,33,9.20
2013,05,03,02,34,9.20
2013,05,03,02,35,9.20
2013,05,03,02,36,9.20
2013,05,03,02,37,9.20
2013,05,03,02,38,9.20
2013,05,03,02,39,9.30
2013,05,03,02,40,9.30
2013,05,03,02,41,9.30
2013,05,03,02,42,9.30
2013,05,03,02,43,9.30
2013,05,03,02,44,9.30
2013,05,03,02,45,9.30
2013,05,03,02,46,9.30
2013,05,03,02,47,9.30
2013,05,03,02,48,9.40
2013,05,03,02,49,9.40
2013,05,03,02,50,9.50
2013,05,03,02,51,9.50
2013,05,03,02,52,9.60
2013,05,03,02,53,9.60
2013,05,03,02,54,9.60
2013,05,03,02,55,9.60
2013,05,03,02,56,9.60
2013,05,03,02,57,9.60
2013,05,03,02,58,9.60
2013,05,03,02,59,9.50
2013,05,03,03,00,9.50
2013,05,03,03,01,9.50
2013,05,03,03,02,9.50
2013,05,03,03,03,9.40
2013,05,03,03,04,9.40
2013,05,03,03,05,9.30
2013,05,03,03,06,9.30
2013,05,03,03,07,9.20
2013,05,03,03,08,9.20
2013,05,03,03,09,9.20
2013,05,03,03,10,9.20
2013,05,03,03,11,9.10
2013,05,03,03,12,9.10
2013,05,03,03,13,9.10
2013,05,03,03,14,9.10
2013,05,03,03,15,9.00
2013,05,03,03,16,9.00
2013,05,03,03,17,9.00
2013,05,03,03,18,8.90
2013,05,03,03,19,8.90
2013,05,03,03,20,8.90
2013,05,03,03,21,8.90
2013,05,03,03,22,8.90
2013,05,03,03,23,8.90
2013,05,03,03,24,8.90
2013,05,03,03,25,8.90
2013,05,03,03,26,8.90
2013,05,03,03,27,9.00
2013,05,03,03,28,9.00
2013,05,03,03,29,9.00
2013,05,03,03,30,9.10
2013,05,03,03,31,9.10
2013,05,03,03,32,9.10
2013,05,03,03,33,9.10
2013,05,03,03,34,9.00
2013,05,03,03,35,9.00
2013,05,03,03,36,9.00
2013,05,03,03,37,9.00
2013,05,03,03,38,9.00
2013,05,03,03,39,9.00
2013,05,03,03,40,9.00
2013,05,03,03,41,9.00
2013,05,03,03,42,9.00
2013,05,03,03,43,9.00
2013,05,03,03,44,9.00
2013,05,03,03,45,9.00
2013,05,03,03,46,9.10
2013,05,03,03,47,9.10
2013,05,03,03,48,9.00
2013,05,03,03,49,9.00
2013,05,03,03,50,9.10
2013,05,03,03,51,9.10
2013,05,03,03,52,9.10
2013,05,03,03,53,9.10
2013,05,03,03,54,9.10
2013,05,03,03,55,9.10
2013,05,03,03,56,9.10
2013,05,03,03,57,9.10
2013,05,03,03,58,9.10
2013,05,03,03,59,9.10
2013,05,03,04,00,9.10
2013,05,03,04,01,9.10
2013,05,03,04,02,9.10
2013,05,03,04,03,9.10
2013,05,03,04,04,9.10
2013,05,03,04,05,9.10
2013,05,03,04,06,9.10
2013,05,03,04,07,9.10
2013,05,03,04,08,9.10
2013,05,03,04,09,9.10
2013,05,03,04,10,9.10
2013,05,03,04,11,9.20
2013,05,03,04,12,9.20
2013,05,03,04,13,9.20
2013,05,03,04,14,9.10
2013,05,03,04,15,9.20
2013,05,03,04,16,9.20
2013,05,03,04,17,9.20
2013,05,03,04,18,9.20
2013,05,03,04,19,9.20
2013,05,03,04,20,9.20
2013,05,03,04,21,9.30
2013,05,03,04,22,9.30
2013,05,03,04,23,9.40
2013,05,03,04,24,9.50
2013,05,03,04,25,9.50
2013,05,03,04,26,9.50
2013,05,03,04,27,9.60
2013,05,03,04,28,9.60
2013,05,03,04,29,9.60
2013,05,03,04,30,9.60
2013,05,03,04,31,9.50
2013,05,03,04,32,9.50
2013,05,03,04,33,9.50
2013,05,03,04,34,9.50
2013,05,03,04,35,9.40
2013,05,03,04,36,9.40
2013,05,03,04,37,9.40
2013,05,03,04,38,9.30
2013,05,03,04,39,9.20
2013,05,03,04,40,9.20
2013,05,03,04,41,9.10
2013,05,03,04,42,9.10
2013,05,03,04,43,9.20
2013,05,03,04,44,9.30
2013,05,03,04,45,9.40
2013,05,03,04,46,9.50
2013,05,03,04,47,9.50
2013,05,03,04,48,9.50
2013,05,03,04,49,9.60
2013,05,03,04,50,9.60
2013,05,03,04,51,9.60
2013,05,03,04,52,9.50
2013,05,03,04,53,9.50
2013,05,03,04,54,9.50
2013,05,03,04,55,9.50
2013,05,03,04,56,9.40
2013,05,03,04,57,9.40
2013,05,03,04,58,9.30
2013,05,03,04,59,9.20
2013,05,03,05,00,9.20
2013,05,03,05,01,9.10
2013,05,03,05,02,8.90
2013,05,03,05,03,8.90
2013,05,03,05,04,8.80
2013,05,03,05,05,8.70
2013,05,03,05,06,8.70
2013,05,03,05,07,8.60
2013,05,03,05,08,8.60
2013,05,03,05,09,8.60
2013,05,03,05,10,8.50
2013,05,03,05,11,8.40
2013,05,03,05,12,8.40
2013,05,03,05,13,8.30
2013,05,03,05,14,8.30
2013,05,03,05,15,8.30
2013,05,03,05,16,8.30
2013,05,03,05,17,8.30
2013,05,03,05,18,8.40
2013,05,03,05,19,8.50
2013,05,03,05,20,8.50
2013,05,03,05,21,8.60
2013,05,03,05,22,8.70
2013,05,03,05,23,8.80
2013,05,03,05,24,8.80
2013,05,03,05,25,8.80
2013,05,03,05,26,8.80
2013,05,03,05,27,8.90
2013,05,03,05,28,8.90
2013,05,03,05,29,9.00
2013,05,03,05,30,9.10
2013,05,03,05,31,9.10
2013,05,03,05,32,9.10
2013,05,03,05,33,9.10
2013,05,03,05,34,9.10
2013,05,03,05,35,9.10
2013,05,03,05,36,9.00
2013,05,03,05,37,9.00
2013,05,03,05,38,9.10
2013,05,03,05,39,9.10
2013,05,03,05,40,9.20
2013,05,03,05,41,9.30
2013,05,03,05,42,9.40
2013,05,03,05,43,9.50
2013,05,03,05,44,9.50
2013,05,03,05,45,9.70
2013,05,03,05,46,9.80
2013,05,03,05,47,9.80
2013,05,03,05,48,9.90
2013,05,03,05,49,10.00
2013,05,03,05,50,10.00
2013,05,03,05,51,10.10
2013,05,03,05,52,10.10
2013,05,03,05,53,10.10
2013,05,03,05,54,10.20
2013,05,03,05,55,10.20
2013,05,03,05,56,10.30
2013,05,03,05,57,10.30
2013,05,03,05,58,10.30
2013,05,03,05,59,10.40
2013,05,03,06,00,10.40
2013,05,03,06,01,10.40
2013,05,03,06,02,10.40
2013,05,03,06,03,10.40
2013,05,03,06,04,10.40
2013,05,03,06,05,10.40
2013,05,03,06,06,10.40
2013,05,03,06,07,10.40
2013,05,03,06,08,10.40
2013,05,03,06,09,10.40
2013,05,03,06,10,10.40
2013,05,03,06,11,10.30
2013,05,03,06,12,10.30
2013,05,03,06,13,10.30
2013,05,03,06,14,10.30
2013,05,03,06,15,10.30
2013,05,03,06,16,10.30
2013,05,03,06,17,10.20
2013,05,03,06,18,10.20
2013,05,03,06,19,10.20
2013,05,03,06,20,10.20
2013,05,03,06,21,10.20
2013,05,03,06,22,10.30
2013,05,03,06,23,10.30
2013,05,03,06,24,10.30
2013,05,03,06,25,10.30
2013,05,03,06,26,10.30
2013,05,03,06,27,10.30
2013,05,03,06,28,10.30
2013,05,03,06,29,10.30
2013,05,03,06,30,10.30
2013,05,03,06,31,10.40
2013,05,03,06,32,10.40
2013,05,03,06,33,10.40
2013,05,03,06,34,10.30
2013,05,03,06,35,10.30
2013,05,03,06,36,10.30
2013,05,03,06,37,10.30
2013,05,03,06,38,10.30
2013,05,03,06,39,10.30
2013,05,03,06,40,10.30
2013,05,03,06,41,10.30
2013,05,03,06,42,10.30
2013,05,03,06,43,10.30
2013,05,03,06,44,10.30
2013,05,03,06,45,10.30
2013,05,03,06,46,10.30
2013,05,03,06,47,10.30
2013,05,03,06,48,10.20
2013,05,03,06,49,10.20
2013,05,03,06,50,10.00
2013,05,03,06,51,9.90
2013,05,03,06,52,9.70
2013,05,03,06,53,9.70
2013,05,03,06,54,9.60
2013,05,03,06,55,9.60
2013,05,03,06,56,9.60
2013,05,03,06,57,9.60
2013,05,03,06,58,9.70
2013,05,03,06,59,9.80
2013,05,03,07,00,9.80
2013,05,03,07,01,9.90
2013,05,03,07,02,10.00
2013,05,03,07,03,10.00
2013,05,03,07,04,10.00
2013,05,03,07,05,9.90
2013,05,03,07,06,9.80
2013,05,03,07,07,9.70
2013,05,03,07,08,9.70
2013,05,03,07,09,9.60
2013,05,03,07,10,9.60
2013,05,03,07,11,9.60
2013,05,03,07,12,9.50
2013,05,03,07,13,9.50
2013,05,03,07,14,9.40
2013,05,03,07,15,9.40
2013,05,03,07,16,9.30
2013,05,03,07,17,9.30
2013,05,03,07,18,9.20
2013,05,03,07,19,9.20
2013,05,03,07,20,9.10
2013,05,03,07,21,9.10
2013,05,03,07,22,9.10
2013,05,03,07,23,9.20
2013,05,03,07,24,9.20
2013,05,03,07,25,9.20
2013,05,03,07,26,9.30
2013,05,03,07,27,9.30
2013,05,03,07,28,9.40
2013,05,03,07,29,9.50
2013,05,03,07,30,9.50
2013,05,03,07,31,9.60
2013,05,03,07,32,9.70
2013,05,03,07,33,9.80
2013,05,03,07,34,9.80
2013,05,03,07,35,9.90
2013,05,03,07,36,10.00
2013,05,03,07,37,10.00
2013,05,03,07,38,10.10
2013,05,03,07,39,10.10
2013,05,03,07,40,10.10
2013,05,03,07,41,10.10
2013,05,03,07,42,10.10
2013,05,03,07,43,10.10
2013,05,03,07,44,10.20
2013,05,03,07,45,10.20
2013,05,03,07,46,10.20
2013,05,03,07,47,10.20
2013,05,03,07,48,10.30
2013,05,03,07,49,10.30
2013,05,03,07,50,10.40
2013,05,03,07,51,10.40
2013,05,03,07,52,10.50
2013,05,03,07,53,10.50
2013,05,03,07,54,10.60
2013,05,03,07,55,10.70
2013,05,03,07,56,10.70
2013,05,03,07,57,10.80
2013,05,03,07,58,10.80
2013,05,03,07,59,10.70
2013,05,03,08,00,10.70
2013,05,03,08,01,10.70
2013,05,03,08,02,10.80
2013,05,03,08,03,10.80
2013,05,03,08,04,10.80
2013,05,03,08,05,10.80
2013,05,03,08,06,10.80
2013,05,03,08,07,10.80
2013,05,03,08,08,10.80
2013,05,03,08,09,10.80
2013,05,03,08,10,10.90
2013,05,03,08,11,10.90
2013,05,03,08,12,10.90
2013,05,03,08,13,10.80
2013,05,03,08,14,10.90
2013,05,03,08,15,10.90
2013,05,03,08,16,10.90
2013,05,03,08,17,11.00
2013,05,03,08,18,11.10
2013,05,03,08,19,11.10
2013,05,03,08,20,11.20
2013,05,03,08,21,11.20
2013,05,03,08,22,11.30
2013,05,03,08,23,11.30
2013,05,03,08,24,11.40
2013,05,03,08,25,11.40
2013,05,03,08,26,11.50
2013,05,03,08,27,11.60
2013,05,03,08,28,11.70
2013,05,03,08,29,11.70
2013,05,03,08,30,11.80
2013,05,03,08,31,11.90
2013,05,03,08,32,11.90
2013,05,03,08,33,12.00
2013,05,03,08,34,12.00
2013,05,03,08,35,12.00
2013,05,03,08,36,12.10
2013,05,03,08,37,12.10
2013,05,03,08,38,12.10
2013,05,03,08,39,12.10
2013,05,03,08,40,12.10
2013,05,03,08,41,12.10
2013,05,03,08,42,12.10
2013,05,03,08,43,12.10
2013,05,03,08,44,12.10
2013,05,03,08,45,12.10
2013,05,03,08,46,12.20
2013,05,03,08,47,12.20
2013,05,03,08,48,12.20
2013,05,03,08,49,12.20
2013,05,03,08,50,12.20
2013,05,03,08,51,12.20
2013,05,03,08,52,12.20
2013,05,03,08,53,12.20
2013,05,03,08,54,12.30
2013,05,03,08,55,12.30
2013,05,03,08,56,12.40
2013,05,03,08,57,12.50
2013,05,03,08,58,12.50
2013,05,03,08,59,12.60
2013,05,03,09,00,12.60
2013,05,03,09,01,12.70
2013,05,03,09,02,12.80
2013,05,03,09,03,12.90
2013,05,03,09,04,12.90
2013,05,03,09,05,13.00
2013,05,03,09,06,13.10
2013,05,03,09,07,13.10
2013,05,03,09,08,13.10
2013,05,03,09,09,13.20
2013,05,03,09,10,13.20
2013,05,03,09,11,13.30
2013,05,03,09,12,13.40
2013,05,03,09,13,13.40
2013,05,03,09,14,13.40
2013,05,03,09,15,13.40
2013,05,03,09,16,13.40
2013,05,03,09,17,13.40
2013,05,03,09,18,13.40
2013,05,03,09,19,13.40
2013,05,03,09,20,13.40
2013,05,03,09,21,13.40
2013,05,03,09,22,13.40
2013,05,03,09,23,13.30
2013,05,03,09,24,13.20
2013,05,03,09,25,13.20
2013,05,03,09,26,13.20
2013,05,03,09,27,13.20
2013,05,03,09,28,13.20
2013,05,03,09,29,13.20
2013,05,03,09,30,13.30
2013,05,03,09,31,13.30
2013,05,03,09,32,13.30
2013,05,03,09,33,13.30
2013,05,03,09,34,13.40
2013,05,03,09,35,13.40
2013,05,03,09,36,13.40
2013,05,03,09,37,13.50
2013,05,03,09,38,13.50
2013,05,03,09,39,13.60
2013,05,03,09,40,13.70
2013,05,03,09,41,13.70
2013,05,03,09,42,13.80
2013,05,03,09,43,13.80
2013,05,03,09,44,13.80
2013,05,03,09,45,13.80
2013,05,03,09,46,13.80
2013,05,03,09,47,13.90
2013,05,03,09,48,13.90
2013,05,03,09,49,13.90
2013,05,03,09,50,13.90
2013,05,03,09,51,14.00
2013,05,03,09,52,14.00
2013,05,03,09,53,13.90
2013,05,03,09,54,13.90
2013,05,03,09,55,13.90
2013,05,03,09,56,14.00
2013,05,03,09,57,14.10
2013,05,03,09,58,14.10
2013,05,03,09,59,14.20
2013,05,03,10,00,14.20
2013,05,03,10,01,14.20
2013,05,03,10,02,14.20
2013,05,03,10,03,14.30
2013,05,03,10,04,14.40
2013,05,03,10,05,14.50
2013,05,03,10,06,14.60
2013,05,03,10,07,14.70
2013,05,03,10,08,14.70
2013,05,03,10,09,14.70
2013,05,03,10,10,14.70
2013,05,03,10,11,14.60
2013,05,03,10,12,14.60
2013,05,03,10,13,14.60
2013,05,03,10,14,14.60
2013,05,03,10,15,14.60
2013,05,03,10,16,14.70
2013,05,03,10,17,14.70
2013,05,03,10,18,14.70
2013,05,03,10,19,14.70
2013,05,03,10,20,14.70
2013,05,03,10,21,14.70
2013,05,03,10,22,14.70
2013,05,03,10,23,14.70
2013,05,03,10,24,14.70
2013,05,03,10,25,14.70
2013,05,03,10,26,14.70
2013,05,03,10,27,14.70
2013,05,03,10,28,14.70
2013,05,03,10,29,14.80
2013,05,03,10,30,14.80
2013,05,03,10,31,14.80
2013,05,03,10,32,14.80
2013,05,03,10,33,14.70
2013,05,03,10,34,14.70
2013,05,03,10,35,14.70
2013,05,03,10,36,14.80
2013,05,03,10,37,14.90
2013,05,03,10,38,15.00
2013,05,03,10,39,15.00
2013,05,03,10,40,15.10
2013,05,03,10,41,15.10
2013,05,03,10,42,15.10
2013,05,03,10,43,15.10
2013,05,03,10,44,15.10
2013,05,03,10,45,15.20
2013,05,03,10,46,15.20
2013,05,03,10,47,15.30
2013,05,03,10,48,15.40
2013,05,03,10,49,15.30
2013,05,03,10,50,15.20
2013,05,03,10,51,15.20
2013,05,03,10,52,15.10
2013,05,03,10,53,15.10
2013,05,03,10,54,15.10
2013,05,03,10,55,15.20
2013,05,03,10,56,15.20
2013,05,03,10,57,15.20
2013,05,03,10,58,15.30
2013,05,03,10,59,15.30
2013,05,03,11,00,15.40
2013,05,03,11,01,15.40
2013,05,03,11,02,15.50
2013,05,03,11,03,15.50
2013,05,03,11,04,15.60
2013,05,03,11,05,15.60
2013,05,03,11,06,15.70
2013,05,03,11,07,15.80
2013,05,03,11,08,15.80
2013,05,03,11,09,15.90
2013,05,03,11,10,15.90
2013,05,03,11,11,15.90
2013,05,03,11,12,15.90
2013,05,03,11,13,15.80
2013,05,03,11,14,15.70
2013,05,03,11,15,15.70
2013,05,03,11,16,15.70
2013,05,03,11,17,15.80
2013,05,03,11,18,15.80
2013,05,03,11,19,16.00
2013,05,03,11,20,16.00
2013,05,03,11,21,16.10
2013,05,03,11,22,16.20
2013,05,03,11,23,16.30
2013,05,03,11,24,16.30
2013,05,03,11,25,16.30
2013,05,03,11,26,16.30
2013,05,03,11,27,16.40
2013,05,03,11,28,16.40
2013,05,03,11,29,16.40
2013,05,03,11,30,16.40
2013,05,03,11,31,16.40
2013,05,03,11,32,16.30
2013,05,03,11,33,16.10
2013,05,03,11,34,15.90
2013,05,03,11,35,15.80
2013,05,03,11,36,15.70
2013,05,03,11,37,15.60
2013,05,03,11,38,15.60
2013,05,03,11,39,15.50
2013,05,03,11,40,15.40
2013,05,03,11,41,15.40
2013,05,03,11,42,15.30
2013,05,03,11,43,15.30
2013,05,03,11,44,15.30
2013,05,03,11,45,15.20
2013,05,03,11,46,15.20
2013,05,03,11,47,15.20
2013,05,03,11,48,15.30
2013,05,03,11,49,15.30
2013,05,03,11,50,15.40
2013,05,03,11,51,15.40
2013,05,03,11,52,15.40
2013,05,03,11,53,15.50
2013,05,03,11,54,15.50
2013,05,03,11,55,15.60
2013,05,03,11,56,15.60
2013,05,03,11,57,15.60
2013,05,03,11,58,15.60
2013,05,03,11,59,15.50
2013,05,03,12,00,15.50
2013,05,03,12,01,15.30
2013,05,03,12,02,15.20
2013,05,03,12,03,15.20
2013,05,03,12,04,15.10
2013,05,03,12,05,15.00
2013,05,03,12,06,15.00
2013,05,03,12,07,15.00
2013,05,03,12,08,14.90
2013,05,03,12,09,14.90
2013,05,03,12,10,14.90
2013,05,03,12,11,15.00
2013,05,03,12,12,15.00
2013,05,03,12,13,15.00
2013,05,03,12,14,15.00
2013,05,03,12,15,14.90
2013,05,03,12,16,14.90
2013,05,03,12,17,14.80
2013,05,03,12,18,14.80
2013,05,03,12,19,14.80
2013,05,03,12,20,16.10
2013,05,03,12,21,17.70
2013,05,03,12,22,17.70
2013,05,03,12,23,17.70
2013,05,03,12,24,17.80
2013,05,03,12,25,17.80
2013,05,03,12,26,17.80
2013,05,03,12,27,17.70
2013,05,03,12,28,17.70
2013,05,03,12,29,17.50
2013,05,03,12,30,17.40
2013,05,03,12,31,17.30
2013,05,03,12,32,17.30
2013,05,03,12,33,17.20
2013,05,03,12,34,17.20
2013,05,03,12,35,17.20
2013,05,03,12,36,17.20
2013,05,03,12,37,17.20
2013,05,03,12,38,17.20
2013,05,03,12,39,17.10
2013,05,03,12,40,17.10
2013,05,03,12,41,17.10
2013,05,03,12,42,17.20
2013,05,03,12,43,17.20
2013,05,03,12,44,17.30
2013,05,03,12,45,17.30
2013,05,03,12,46,17.30
2013,05,03,12,47,17.30
2013,05,03,12,48,17.30
2013,05,03,12,49,17.30
2013,05,03,12,50,17.20
2013,05,03,12,51,17.20
2013,05,03,12,52,17.20
2013,05,03,12,53,17.10
2013,05,03,12,54,17.10
2013,05,03,12,55,17.00
2013,05,03,12,56,17.00
2013,05,03,12,57,17.00
2013,05,03,12,58,17.10
2013,05,03,12,59,17.20
2013,05,03,13,00,17.30
2013,05,03,13,01,17.30
2013,05,03,13,02,17.30
2013,05,03,13,03,17.30
2013,05,03,13,04,17.20
2013,05,03,13,05,17.20
2013,05,03,13,06,17.20
2013,05,03,13,07,17.20
2013,05,03,13,08,17.30
2013,05,03,13,09,17.50
2013,05,03,13,10,17.70
2013,05,03,13,11,17.70
2013,05,03,13,12,17.80
2013,05,03,13,13,17.80
2013,05,03,13,14,17.80
2013,05,03,13,15,17.80
2013,05,03,13,16,17.70
2013,05,03,13,17,17.70
2013,05,03,13,18,17.60
2013,05,03,13,19,17.60
2013,05,03,13,20,17.60
2013,05,03,13,21,17.70
2013,05,03,13,22,17.70
2013,05,03,13,23,17.60
2013,05,03,13,24,17.60
2013,05,03,13,25,17.60
2013,05,03,13,26,17.60
2013,05,03,13,27,17.70
2013,05,03,13,28,17.80
2013,05,03,13,29,17.90
2013,05,03,13,30,18.10
2013,05,03,13,31,18.30
2013,05,03,13,32,18.40
2013,05,03,13,33,18.50
2013,05,03,13,34,18.70
2013,05,03,13,35,18.80
2013,05,03,13,36,18.80
2013,05,03,13,37,18.60
2013,05,03,13,38,18.60
2013,05,03,13,39,18.60
2013,05,03,13,40,18.60
2013,05,03,13,41,18.60
2013,05,03,13,42,18.60
2013,05,03,13,43,18.60
2013,05,03,13,44,18.60
2013,05,03,13,45,18.60
2013,05,03,13,46,18.60
2013,05,03,13,47,18.60
2013,05,03,13,48,18.50
2013,05,03,13,49,18.50
2013,05,03,13,50,18.50
2013,05,03,13,51,18.50
2013,05,03,13,52,18.60
2013,05,03,13,53,18.60
2013,05,03,13,54,18.60
2013,05,03,13,55,18.60
2013,05,03,13,56,18.60
2013,05,03,13,57,18.50
2013,05,03,13,58,18.60
2013,05,03,13,59,18.60
2013,05,03,14,00,18.60
2013,05,03,14,01,18.60
2013,05,03,14,02,18.60
2013,05,03,14,03,18.60
2013,05,03,14,04,18.70
2013,05,03,14,05,18.70
2013,05,03,14,06,18.70
2013,05,03,14,07,18.80
2013,05,03,14,08,18.80
2013,05,03,14,09,18.90
2013,05,03,14,10,18.90
2013,05,03,14,11,19.00
2013,05,03,14,12,19.10
2013,05,03,14,13,19.10
2013,05,03,14,14,19.20
2013,05,03,14,15,19.10
2013,05,03,14,16,19.10
2013,05,03,14,17,19.10
2013,05,03,14,18,19.10
2013,05,03,14,19,19.10
2013,05,03,14,20,19.10
2013,05,03,14,21,19.10
2013,05,03,14,22,19.10
2013,05,03,14,23,19.10
2013,05,03,14,24,19.20
2013,05,03,14,25,19.20
2013,05,03,14,26,19.10
2013,05,03,14,27,19.10
2013,05,03,14,28,19.10
2013,05,03,14,29,19.30
2013,05,03,14,30,19.40
2013,05,03,14,31,19.50
2013,05,03,14,32,19.40
2013,05,03,14,33,19.40
2013,05,03,14,34,19.40
2013,05,03,14,35,19.50
2013,05,03,14,36,19.60
2013,05,03,14,37,19.60
2013,05,03,14,38,19.70
2013,05,03,14,39,19.70
2013,05,03,14,40,19.80
2013,05,03,14,41,19.80
2013,05,03,14,42,19.80
2013,05,03,14,43,19.80
2013,05,03,14,44,19.70
2013,05,03,14,45,19.80
2013,05,03,14,46,19.80
2013,05,03,14,47,19.90
2013,05,03,14,48,19.90
2013,05,03,14,49,19.90
2013,05,03,14,50,19.90
2013,05,03,14,51,19.90
2013,05,03,14,52,20.00
2013,05,03,14,53,20.10
2013,05,03,14,54,20.20
2013,05,03,14,55,20.30
2013,05,03,14,56,20.30
2013,05,03,14,57,20.40
2013,05,03,14,58,20.40
2013,05,03,14,59,20.40
2013,05,03,15,00,20.40
2013,05,03,15,01,20.30
2013,05,03,15,02,20.20
2013,05,03,15,03,20.00
2013,05,03,15,04,19.90
2013,05,03,15,05,19.70
2013,05,03,15,06,19.60
2013,05,03,15,07,19.50
2013,05,03,15,08,19.40
2013,05,03,15,09,19.40
2013,05,03,15,10,19.30
2013,05,03,15,11,19.30
2013,05,03,15,12,19.30
2013,05,03,15,13,19.20
2013,05,03,15,14,19.10
2013,05,03,15,15,19.10
2013,05,03,15,16,19.10
2013,05,03,15,17,19.10
2013,05,03,15,18,19.10
2013,05,03,15,19,19.10
2013,05,03,15,20,19.10
2013,05,03,15,21,19.10
2013,05,03,15,22,19.10
2013,05,03,15,23,19.10
2013,05,03,15,24,19.20
2013,05,03,15,25,19.40
2013,05,03,15,26,19.50
2013,05,03,15,27,19.60
2013,05,03,15,28,19.60
2013,05,03,15,29,19.70
2013,05,03,15,30,19.80
2013,05,03,15,31,19.80
2013,05,03,15,32,19.90
2013,05,03,15,33,19.90
2013,05,03,15,34,20.10
2013,05,03,15,35,20.20
2013,05,03,15,36,20.30
2013,05,03,15,37,20.40
2013,05,03,15,38,20.50
2013,05,03,15,39,20.60
2013,05,03,15,40,20.60
2013,05,03,15,41,20.60
2013,05,03,15,42,20.50
2013,05,03,15,43,20.50
2013,05,03,15,44,20.50
2013,05,03,15,45,20.60
2013,05,03,15,46,20.60
2013,05,03,15,47,20.50
2013,05,03,15,48,20.40
2013,05,03,15,49,20.50
2013,05,03,15,50,20.50
2013,05,03,15,51,20.50
2013,05,03,15,52,20.50
2013,05,03,15,53,20.50
2013,05,03,15,54,20.60
2013,05,03,15,55,20.50
2013,05,03,15,56,20.50
2013,05,03,15,57,20.30
2013,05,03,15,58,20.30
2013,05,03,15,59,20.20
2013,05,03,16,00,20.30
2013,05,03,16,01,20.30
2013,05,03,16,02,20.30
2013,05,03,16,03,20.20
2013,05,03,16,04,20.20
2013,05,03,16,05,20.20
2013,05,03,16,06,20.20
2013,05,03,16,07,20.20
2013,05,03,16,08,20.30
2013,05,03,16,09,20.40
2013,05,03,16,10,20.40
2013,05,03,16,11,20.30
2013,05,03,16,12,20.20
2013,05,03,16,13,20.10
2013,05,03,16,14,20.10
2013,05,03,16,15,20.10
2013,05,03,16,16,20.10
2013,05,03,16,17,20.10
2013,05,03,16,18,20.10
2013,05,03,16,19,20.10
2013,05,03,16,20,20.10
2013,05,03,16,21,20.10
2013,05,03,16,22,20.10
2013,05,03,16,23,20.00
2013,05,03,16,24,19.90
2013,05,03,16,25,19.80
2013,05,03,16,26,19.70
2013,05,03,16,27,19.70
2013,05,03,16,28,19.80
2013,05,03,16,29,19.80
2013,05,03,16,30,19.90
2013,05,03,16,31,19.90
2013,05,03,16,32,19.90
2013,05,03,16,33,19.90
2013,05,03,16,34,19.90
2013,05,03,16,35,19.90
2013,05,03,16,36,19.90
2013,05,03,16,37,19.90
2013,05,03,16,38,19.90
2013,05,03,16,39,19.80
2013,05,03,16,40,19.70
2013,05,03,16,41,19.70
2013,05,03,16,42,19.70
2013,05,03,16,43,19.80
2013,05,03,16,44,19.90
2013,05,03,16,45,19.90
2013,05,03,16,46,19.90
2013,05,03,16,47,19.90
2013,05,03,16,48,19.90
2013,05,03,16,49,20.00
2013,05,03,16,50,20.00
2013,05,03,16,51,19.90
2013,05,03,16,52,19.90
2013,05,03,16,53,19.90
2013,05,03,16,54,19.70
2013,05,03,16,55,19.70
2013,05,03,16,56,19.70
2013,05,03,16,57,19.60
2013,05,03,16,58,19.50
2013,05,03,16,59,19.40
2013,05,03,17,00,19.20
2013,05,03,17,01,19.10
2013,05,03,17,02,19.00
2013,05,03,17,03,18.90
2013,05,03,17,04,18.80
2013,05,03,17,05,18.80
2013,05,03,17,06,18.80
2013,05,03,17,07,18.70
2013,05,03,17,08,18.50
2013,05,03,17,09,18.40
2013,05,03,17,10,18.40
2013,05,03,17,11,18.40
2013,05,03,17,12,18.30
2013,05,03,17,13,18.30
2013,05,03,17,14,18.10
2013,05,03,17,15,17.90
2013,05,03,17,16,17.70
2013,05,03,17,17,17.50
2013,05,03,17,18,17.30
2013,05,03,17,19,17.30
2013,05,03,17,20,17.30
2013,05,03,17,21,17.30
2013,05,03,17,22,17.20
2013,05,03,17,23,17.10
2013,05,03,17,24,17.00
2013,05,03,17,25,16.90
2013,05,03,17,26,16.90
2013,05,03,17,27,16.80
2013,05,03,17,28,16.80
2013,05,03,17,29,16.80
2013,05,03,17,30,16.90
2013,05,03,17,31,16.90